FENGYUN 1C DEB, 30076

Orbit data source: Space-Track

FENGYUN 1C DEB, 30076 is space debris in SSO originally from a launch on Mon, 10 May 1999 UTC launched from the Taiyaun Space Center, China (TSC). Fengyun 1C debris stems from the Chinese weather satellite Fengyun-1C, which was intentionally destroyed by a Chinese anti-satellite missile in 2007. This event dramatically increased the amount of space debris, with thousands of trackable fragments posing hazards to satellites and human spaceflight. The Fengyun 1C debris cloud has become a focal point in discussions about space sustainability and the need for international regulations to prevent the creation of new debris.

Loading next visibility...
Identifier
30076, 1999-025QD
Orbit
SSO
Country
Flag of CNCN / PRC
Related business
Manufacturer
Unknown
Mission
Spacecraft
Bus & Motor
Unknown
Mass
Unknown
Launch date (UTC)
1999-05-10 (27 years ago)
Launch vehicle
Unknown
Launch site
Taiyaun Space Center, China (TSC)
Object type
Payload
Rocket body
Debris
Shape & HBR
Unknown shape, 0.1 m
Radar Cross Section
Medium (>0.1 m² and <1 m²)

Expand to show TLE details & history
Last TLE update: 1 day ago

TLE from 1 day ago
0 FENGYUN 1C DEB
1 30076U 99025QD  26171.42946469  .00000183  00000-0  20811-3 0  9999
2 30076  99.2545 157.8281 0174017 314.1770 200.8124 13.76420768975032
Epoch: 2026-06-20T10:18Z
TLE epoch observation values (Epoch: 2026-06-20T10:18:25.749Z)
Latitude
25.37614°
Longitude
-81.01343°
Altitude
1,099.546 km
Speed
7.245 km/s
True Right ascension
22h 48m 57s
True Declination
25° 14' 58"
Sunlit
Object was in daylight at epoch
Visualization orbit readout
Latitude
Unknown
Longitude
Unknown
Altitude
Unknown
Speed
Unknown
Apparent Right ascension
Unknown
Apparent Declination
Unknown
Sunlit
N/A
Visualization observer readout
Local Sidereal Time
02:43:53
Azimuth
Unknown
Elevation
Unknown
Doppler factor
Unknown
Orbital elements
Apogee altitude
1,101.789 km
Perigee altitude
845.914 km
Semi-major axis
7,351.989 km
Eccentricity
0.0174
Inclination
99.2545°
RAAN
157.8281°
Arg. of periapsis
314.177°
True anomaly
200.11803°
Mean anomaly
200.8124°
Eccentric anomaly
200.46382°
Mean motion
3.44299 °/min
Orbital period
104.56 mins
BSTAR
0.00020811
Loading maneuver chart data...
Computing Atmospheric mass density...

Documentation

Showing up to 5 results
|